QPF
0.00 0.00 0.00 0.00 0.00 0.00 0.00 0.00 0.00 0.00 0.00 0.00 0.00 0.00 0.00 0.00 0.00 0.00 0.00 0.00 0.00 0.00 0.00 0.00 0.00 0.00 0.00 0.00 0.00 0.00 0.00 0.00 0.00 0.00 0.00 0.00 0.00 0.00 0.00 0.00 0.00 0.00 0.00 0.00 0.00 0.00 0.00 0.00 0.00 0.00 0.00 0.00 0.00 0.00 0.00 0.00 0.00 0.00 0.00 0.00 0.00 0.00 0.00
0.00 0.00 0.00 0.00 0.00 0.00 0.00 0.00 0.00 0.00 0.00 0.00 0.00 0.00 0.00 0.00 0.00 0.00 0.00 0.00 0.00 0.00 0.00 0.00 0.00 0.00 0.00 0.00 0.00 0.00 0.00 0.00 0.00 0.00 0.00 0.00 0.00 0.00 0.00 0.00 0.00 0.00 0.00 0.00 0.00 0.00 0.00 0.00 0.00 0.00 0.00 0.00 0.00 0.00 0.00 0.00 0.00 0.00 0.00 0.00 0.00 0.00 0.00
0.00 0.00 0.00 0.00 0.00 0.00 0.00 0.00 0.00 0.00 0.00 0.00 0.00 0.00 0.00 0.00 0.00 0.00 0.00 0.00 0.00 0.00 0.00 0.00 0.00 0.00 0.00 0.00 0.00 0.00 0.00 0.00 0.00 0.00 0.00 0.00 0.00 0.00 0.00 0.00 0.00 0.00 0.00 0.00 0.00 0.00 0.00 0.00 0.00 0.00 0.00 0.00 0.00 0.00 0.00 0.00 0.00 0.00 0.00 0.00 0.00 0.00 0.00
0.00 0.00 0.00 0.00 0.00 0.00 0.00 0.00 0.00 0.00 0.00 0.00 0.00 0.00 0.00 0.00 0.00 0.00 0.00 0.00 0.00 0.00 0.00 0.00 0.00 0.00 0.00 0.00 0.00 0.00 0.00 0.00 0.00 0.00 0.00 0.00 0.00 0.00 0.00 0.00 0.00 0.00 0.00 0.00 0.00 0.00 0.00 0.00 0.00 0.00 0.00 0.00 0.00 0.00 0.00 0.00 0.00 0.00 0.00 0.00 0.00 0.00 0.00
0.00 0.00 0.00 0.00 0.00 0.00 0.00 0.00 0.00 0.00 0.00 0.00 0.00 0.00 0.00 0.00 0.00 0.00 0.00 0.00 0.00 0.00 0.00 0.00 0.00 0.00 0.00 0.00 0.00 0.00 0.00 0.00 0.00 0.00 0.00 0.00 0.00 0.00 0.00 0.00 0.00 0.00 0.00 0.00 0.00 0.00 0.00 0.01 0.02 0.00 0.00 0.00 0.00 0.00 0.00 0.00 0.00 0.00 0.00 0.00 0.00 0.00 0.00
0.00 0.00 0.00 0.00 0.00 0.00 0.00 0.00 0.00 0.00 0.00 0.00 0.00 0.00 0.00 0.00 0.00 0.00 0.00 0.00 0.00 0.00 0.00 0.00 0.00 0.00 0.00 0.00 0.00 0.00 0.00 0.00 0.00 0.00 0.00 0.00 0.00 0.00 0.00 0.00 0.00 0.00 0.00 0.00 0.00 0.00 0.00 0.00 0.00 0.00 0.00 0.00 0.00 0.00 0.00 0.00 0.00 0.00 0.00 0.00 0.00 0.00 0.00
0.00 0.00 0.00 0.00 0.00 0.00 0.00 0.00 0.00 0.00 0.00 0.00 0.00 0.00 0.00 0.00 0.00 0.00 0.00 0.00 0.00 0.00 0.00 0.00 0.00 0.00 0.00 0.00 0.00 0.00 0.00 0.00 0.00 0.00 0.00 0.00 0.00 0.00 0.00 0.00 0.00 0.00 0.00 0.00 0.00 0.00 0.00 0.00 0.00 0.00 0.00 0.00 0.00 0.00 0.00 0.00 0.00 0.00 0.00 0.00 0.00 0.00 0.00
0.00 0.00 0.00 0.00 0.00 0.00 0.00 0.00 0.00 0.00 0.00 0.00 0.00 0.00 0.00 0.00 0.00 0.00 0.00 0.00 0.00 0.00 0.00 0.00 0.00 0.00 0.00 0.00 0.00 0.00 0.00 0.00 0.00 0.00 0.00 0.00 0.00 0.00 0.00 0.00 0.00 0.00 0.00 0.00 0.00 0.00 0.00 0.00 0.00 0.00 0.00 0.00 0.00 0.00 0.00 0.00 0.00 0.00 0.00 0.00 0.00 0.00 0.00
0.00 0.00 0.00 0.00 0.00 0.00 0.00 0.00 0.00 0.00 0.00 0.00 0.00 0.00 0.00 0.00 0.00 0.00 0.00 0.00 0.00 0.00 0.00 0.00 0.00 0.00 0.00 0.00 0.00 0.00 0.00 0.00 0.00 0.00 0.00 0.00 0.00 0.00 0.00 0.00 0.00 0.00 0.00 0.00 0.00 0.00 0.00 0.00 0.00 0.00 0.00 0.00 0.00 0.00 0.00 0.00 0.00 0.00 0.00 0.00 0.00 0.00 0.00
0.00 0.00 0.00 0.00 0.00 0.00 0.00 0.00 0.00 0.00 0.00 0.00 0.00 0.00 0.00 0.00 0.00 0.00 0.00 0.00 0.00 0.00 0.00 0.00 0.00 0.00 0.00 0.00 0.00 0.00 0.00 0.00 0.00 0.00 0.00 0.00 0.00 0.00 0.00 0.00 0.00 0.00 0.00 0.00 0.00 0.00 0.00 0.00 0.00 0.00 0.00 0.00 0.00 0.00 0.00 0.00 0.00 0.00 0.00 0.00 0.00 0.00 0.00
0.01 0.00 0.00 0.00 0.00 0.00 0.00 0.00 0.00 0.00 0.00 0.00 0.00 0.00 0.00 0.00 0.00 0.00 0.00 0.00 0.00 0.00 0.00 0.00 0.00 0.00 0.00 0.00 0.00 0.00 0.00 0.00 0.00 0.00 0.00 0.00 0.00 0.00 0.00 0.00 0.00 0.00 0.00 0.00 0.00 0.00 0.00 0.00 0.00 0.00 0.00 0.00 0.00 0.00 0.00 0.00 0.00 0.00 0.00 0.00 0.00 0.00 0.00
0.00 0.03 0.00 0.00 0.00 0.00 0.00 0.00 0.00 0.00 0.00 0.00 0.00 0.00 0.00 0.00 0.00 0.00 0.00 0.00 0.00 0.00 0.00 0.00 0.00 0.00 0.00 0.00 0.00 0.00 0.00 0.00 0.00 0.00 0.00 0.00 0.00 0.00 0.00 0.00 0.00 0.00 0.00 0.00 0.00 0.00 0.00 0.00 0.00 0.00 0.00 0.00 0.00 0.00 0.00 0.00 0.00 0.00 0.00 0.00 0.00 0.00 0.00
0.00 0.00 0.01 0.00 0.00 0.00 0.00 0.00 0.00 0.00 0.00 0.00 0.00 0.00 0.00 0.00 0.00 0.00 0.00 0.00 0.00 0.00 0.00 0.00 0.00 0.00 0.00 0.00 0.00 0.00 0.00 0.00 0.00 0.00 0.00 0.00 0.00 0.00 0.00 0.00 0.00 0.00 0.00 0.00 0.00 0.00 0.00 0.00 0.00 0.00 0.00 0.00 0.00 0.00 0.00 0.00 0.00 0.00 0.00 0.00 0.00 0.00 0.00
0.00 0.00 0.00 0.00 0.00 0.00 0.00 0.00 0.00 0.00 0.00 0.00 0.00 0.00 0.00 0.00 0.00 0.00 0.00 0.00 0.00 0.00 0.00 0.00 0.00 0.00 0.00 0.00 0.00 0.00 0.00 0.00 0.00 0.00 0.00 0.00 0.00 0.00 0.00 0.00 0.00 0.00 0.00 0.00 0.00 0.00 0.00 0.00 0.00 0.00 0.00 0.00 0.00 0.00 0.00 0.00 0.00 0.00 0.00 0.00 0.00 0.00 0.00
0.02 0.01 0.00 0.00 0.00 0.00 0.00 0.00 0.00 0.00 0.00 0.00 0.00 0.00 0.00 0.00 0.00 0.00 0.00 0.00 0.00 0.00 0.00 0.00 0.00 0.00 0.00 0.00 0.00 0.00 0.00 0.00 0.00 0.00 0.00 0.00 0.00 0.00 0.00 0.00 0.00 0.00 0.00 0.00 0.00 0.00 0.00 0.00 0.00 0.00 0.00 0.00 0.00 0.00 0.00 0.00 0.00 0.00 0.00 0.00 0.00 0.00 0.00
0.03 0.02 0.00 0.00 0.00 0.00 0.00 0.00 0.00 0.00 0.00 0.00 0.00 0.00 0.00 0.00 0.00 0.00 0.00 0.00 0.00 0.00 0.00 0.00 0.00 0.00 0.00 0.00 0.00 0.00 0.00 0.00 0.00 0.00 0.00 0.00 0.00 0.00 0.00 0.00 0.00 0.00 0.00 0.00 0.00 0.00 0.00 0.00 0.00 0.00 0.00 0.00 0.00 0.00 0.00 0.00 0.00 0.00 0.00 0.00 0.00 0.00 0.00
0.00 0.00 0.00 0.00 0.00 0.00 0.00 0.00 0.00 0.00 0.00 0.00 0.00 0.00 0.00 0.00 0.00 0.00 0.00 0.00 0.00 0.00 0.00 0.00 0.00 0.00 0.00 0.00 0.00 0.00 0.00 0.00 0.00 0.00 0.00 0.00 0.00 0.00 0.00 0.00 0.00 0.00 0.00 0.00 0.00 0.00 0.00 0.00 0.00 0.00 0.00 0.00 0.00 0.00 0.00 0.00 0.00 0.00 0.00 0.00 0.00 0.00 0.00
0.00 0.00 0.01 0.00 0.00 0.00 0.00 0.00 0.00 0.00 0.00 0.00 0.00 0.00 0.00 0.00 0.00 0.00 0.00 0.00 0.00 0.00 0.00 0.00 0.00 0.00 0.00 0.00 0.00 0.00 0.00 0.00 0.00 0.00 0.00 0.00 0.00 0.00 0.00 0.00 0.00 0.00 0.00 0.00 0.00 0.00 0.00 0.00 0.00 0.00 0.00 0.00 0.00 0.00 0.00 0.00 0.00 0.00 0.00 0.00 0.00 0.00 0.00
0.00 0.00 0.01 0.00 0.00 0.00 0.00 0.00 0.00 0.00 0.00 0.00 0.00 0.00 0.00 0.00 0.00 0.00 0.00 0.00 0.00 0.00 0.00 0.00 0.00 0.00 0.00 0.00 0.00 0.00 0.00 0.00 0.00 0.00 0.00 0.00 0.00 0.00 0.00 0.00 0.00 0.00 0.00 0.00 0.00 0.00 0.00 0.00 0.00 0.00 0.00 0.00 0.00 0.00 0.00 0.00 0.00 0.00 0.00 0.00 0.00 0.00 0.00
0.00 0.04 0.04 0.01 0.00 0.00 0.00 0.00 0.00 0.00 0.00 0.00 0.00 0.00 0.00 0.00 0.00 0.00 0.00 0.00 0.00 0.00 0.00 0.00 0.00 0.00 0.00 0.00 0.00 0.00 0.00 0.00 0.00 0.00 0.00 0.00 0.00 0.00 0.00 0.00 0.00 0.00 0.00 0.00 0.00 0.00 0.00 0.00 0.00 0.00 0.00 0.00 0.00 0.00 0.00 0.00 0.00 0.00 0.00 0.00 0.00 0.00 0.00
0.00 0.00 0.00 0.01 0.00 0.00 0.00 0.00 0.00 0.00 0.00 0.00 0.00 0.00 0.00 0.00 0.00 0.00 0.00 0.00 0.00 0.00 0.00 0.00 0.00 0.00 0.00 0.00 0.00 0.00 0.00 0.00 0.00 0.00 0.00 0.00 0.00 0.00 0.00 0.00 0.00 0.00 0.00 0.00 0.00 0.00 0.00 0.00 0.00 0.00 0.00 0.00 0.00 0.00 0.00 0.00 0.00 0.00 0.00 0.00 0.00 0.00 0.00
0.00 0.05 0.01 0.00 0.01 0.00 0.00 0.00 0.00 0.00 0.00 0.00 0.00 0.00 0.00 0.00 0.00 0.00 0.00 0.00 0.01 0.00 0.00 0.00 0.00 0.00 0.00 0.00 0.00 0.00 0.00 0.00 0.00 0.00 0.00 0.00 0.00 0.00 0.00 0.00 0.00 0.00 0.00 0.00 0.00 0.00 0.00 0.00 0.00 0.00 0.00 0.00 0.00 0.00 0.00 0.00 0.00 0.00 0.00 0.00 0.00 0.00 0.00
0.00 0.02 0.07 0.02 0.00 0.00 0.00 0.00 0.00 0.00 0.00 0.00 0.00 0.00 0.00 0.00 0.00 0.00 0.00 0.00 0.00 0.00 0.00 0.00 0.00 0.00 0.00 0.00 0.00 0.00 0.00 0.00 0.00 0.00 0.00 0.00 0.00 0.00 0.00 0.00 0.00 0.00 0.00 0.00 0.00 0.00 0.00 0.00 0.00 0.00 0.00 0.00 0.00 0.00 0.00 0.00 0.00 0.00 0.00 0.00 0.00 0.00 0.00
0.00 0.00 0.04 0.03 0.00 0.00 0.00 0.00 0.02 0.00 0.00 0.00 0.00 0.01 0.00 0.00 0.00 0.00 0.00 0.00 0.00 0.00 0.00 0.00 0.00 0.00 0.00 0.00 0.00 0.00 0.00 0.00 0.00 0.00 0.00 0.00 0.00 0.00 0.00 0.00 0.00 0.00 0.00 0.00 0.00 0.00 0.00 0.00 0.00 0.00 0.00 0.00 0.00 0.00 0.00 0.00 0.00 0.00 0.00 0.00 0.00 0.00 0.00
0.00 0.00 0.00 0.04 0.00 0.00 0.00 0.00 0.03 0.00 0.00 0.00 0.00 0.02 0.08 0.00 0.00 0.00 0.00 0.00 0.00 0.00 0.00 0.00 0.00 0.00 0.00 0.00 0.00 0.00 0.00 0.00 0.00 0.00 0.00 0.00 0.00 0.00 0.00 0.00 0.00 0.00 0.00 0.00 0.00 0.00 0.00 0.00 0.00 0.00 0.00 0.00 0.00 0.00 0.00 0.00 0.00 0.00 0.00 0.00 0.00 0.00 0.00
0.01 0.00 0.06 0.00 0.00 0.00 0.03 0.05 0.00 0.01 0.00 0.09 0.04 0.01 0.02 0.00 0.00 0.00 0.00 0.00 0.00 0.00 0.00 0.00 0.00 0.00 0.00 0.00 0.00 0.00 0.00 0.00 0.00 0.00 0.00 0.00 0.00 0.00 0.00 0.00 0.00 0.00 0.00 0.00 0.00 0.00 0.00 0.00 0.00 0.00 0.00 0.00 0.00 0.00 0.00 0.00 0.00 0.00 0.00 0.00 0.00 0.00 0.00
0.00 0.00 0.02 0.00 0.00 0.01 0.00 0.01 0.02 0.02 0.05 0.21 0.02 0.00 0.00 0.00 0.00 0.00 0.00 0.00 0.00 0.00 0.00 0.00 0.00 0.00 0.00 0.00 0.00 0.00 0.00 0.00 0.00 0.00 0.00 0.00 0.00 0.00 0.00 0.00 0.00 0.00 0.00 0.00 0.00 0.00 0.00 0.00 0.00 0.00 0.00 0.00 0.00 0.00 0.00 0.00 0.00 0.00 0.00 0.00 0.00 0.00 0.00
0.00 0.00 0.12 0.01 0.02 0.00 0.00 0.01 0.03 0.03 0.01 0.08 0.02 0.03 0.00 0.00 0.00 0.00 0.00 0.00 0.00 0.00 0.00 0.00 0.00 0.00 0.00 0.00 0.00 0.00 0.00 0.00 0.00 0.00 0.00 0.00 0.00 0.00 0.00 0.00 0.00 0.00 0.00 0.00 0.00 0.00 0.00 0.00 0.00 0.00 0.00 0.00 0.00 0.00 0.00 0.00 0.00 0.00 0.00 0.00 0.00 0.00 0.00
0.00 0.00 0.00 0.00 0.00 0.00 0.00 0.00 0.01 0.00 0.00 0.00 0.02 0.01 0.04 0.00 0.00 0.00 0.00 0.00 0.00 0.00 0.00 0.00 0.00 0.00 0.00 0.00 0.00 0.00 0.00 0.00 0.00 0.00 0.00 0.00 0.00 0.00 0.00 0.00 0.00 0.00 0.00 0.00 0.00 0.00 0.00 0.00 0.00 0.00 0.00 0.00 0.00 0.00 0.00 0.00 0.00 0.00 0.00 0.00 0.00 0.00 0.00
0.00 0.00 0.00 0.00 0.00 0.00 0.00 0.00 0.00 0.05 0.02 0.03 0.00 0.00 0.00 0.00 0.00 0.00 0.00 0.00 0.00 0.00 0.00 0.00 0.00 0.00 0.00 0.00 0.00 0.00 0.00 0.00 0.00 0.00 0.00 0.00 0.00 0.00 0.00 0.00 0.00 0.00 0.00 0.00 0.00 0.00 0.00 0.00 0.00 0.00 0.00 0.00 0.00 0.00 0.00 0.00 0.00 0.00 0.00 0.00 0.00 0.00 0.00
0.00 0.00 0.00 0.00 0.00 0.00 0.00 0.00 0.00 0.00 0.01 0.04 0.00 0.00 0.00 0.06 0.00 0.00 0.00 0.00 0.00 0.00 0.00 0.00 0.00 0.00 0.00 0.00 0.00 0.00 0.00 0.00 0.00 0.00 0.00 0.00 0.00 0.00 0.00 0.00 0.00 0.00 0.00 0.00 0.00 0.00 0.00 0.00 0.00 0.00 0.00 0.00 0.00 0.00 0.00 0.00 0.00 0.00 0.00 0.00 0.00 0.00 0.00
0.00 0.00 0.00 0.00 0.00 0.00 0.00 0.00 0.01 0.00 0.01 0.00 0.01 0.00 0.00 0.00 0.12 0.00 0.00 0.00 0.00 0.00 0.00 0.00 0.00 0.00 0.00 0.00 0.00 0.00 0.00 0.00 0.00 0.00 0.00 0.00 0.00 0.00 0.00 0.00 0.00 0.00 0.00 0.00 0.00 0.00 0.00 0.00 0.00 0.00 0.00 0.00 0.00 0.00 0.00 0.00 0.00 0.00 0.00 0.00 0.00 0.00 0.00
0.00 0.00 0.00 0.00 0.00 0.00 0.00 0.01 0.00 0.00 0.00 0.00 0.00 0.00 0.00 0.00 0.00 0.01 0.00 0.00 0.00 0.00 0.00 0.00 0.00 0.00 0.00 0.00 0.00 0.00 0.00 0.00 0.00 0.00 0.00 0.00 0.00 0.00 0.00 0.00 0.00 0.00 0.00 0.00 0.00 0.00 0.00 0.00 0.00 0.00 0.00 0.00 0.00 0.00 0.00 0.00 0.00 0.00 0.00 0.00 0.00 0.00 0.00
0.00 0.00 0.00 0.00 0.00 0.00 0.00 0.00 0.00 0.00 0.00 0.00 0.00 0.00 0.00 0.00 0.00 0.02 0.01 0.00 0.00 0.00 0.00 0.00 0.00 0.00 0.00 0.00 0.00 0.00 0.00 0.00 0.01 0.00 0.00 0.00 0.00 0.00 0.00 0.00 0.00 0.00 0.00 0.00 0.00 0.00 0.00 0.00 0.00 0.00 0.00 0.00 0.00 0.00 0.00 0.00 0.00 0.00 0.00 0.00 0.00 0.00 0.00
0.00 0.00 0.00 0.00 0.00 0.00 0.00 0.00 0.00 0.00 0.00 0.00 0.00 0.00 0.00 0.00 0.00 0.00 0.04 0.00 0.00 0.00 0.00 0.00 0.00 0.00 0.00 0.00 0.00 0.00 0.00 0.00 0.00 0.00 0.00 0.00 0.00 0.00 0.00 0.00 0.00 0.00 0.00 0.00 0.00 0.00 0.00 0.00 0.00 0.00 0.00 0.00 0.00 0.00 0.00 0.00 0.00 0.00 0.00 0.00 0.00 0.00 0.00
0.00 0.00 0.00 0.00 0.00 0.00 0.00 0.00 0.00 0.00 0.00 0.00 0.00 0.00 0.00 0.00 0.00 0.00 0.00 0.00 0.00 0.00 0.00 0.00 0.00 0.00 0.00 0.00 0.00 0.00 0.00 0.00 0.00 0.00 0.00 0.00 0.00 0.00 0.00 0.00 0.00 0.00 0.00 0.00 0.00 0.00 0.00 0.00 0.00 0.00 0.00 0.00 0.00 0.00 0.00 0.00 0.00 0.00 0.00 0.00 0.00 0.00 0.00
0.00 0.00 0.00 0.00 0.00 0.00 0.00 0.00 0.00 0.00 0.00 0.00 0.00 0.00 0.00 0.00 0.00 0.00 0.00 0.00 0.00 0.00 0.00 0.00 0.00 0.00 0.00 0.00 0.00 0.00 0.00 0.00 0.00 0.00 0.00 0.00 0.00 0.00 0.00 0.00 0.01 0.01 0.00 0.00 0.00 0.00 0.00 0.00 0.00 0.00 0.00 0.00 0.00 0.00 0.00 0.00 0.00 0.00 0.00 0.00 0.00 0.00 0.00
MSLP
996.72 996.64 996.44 996.84 996.52 1004.20 1000.52 1000.84 1003.20 1001.68 999.56 1001.72 1004.28 1004.08 1003.56 1004.24 1005.84 1007.68 1003.68 1004.04 1002.48 999.76 998.88 997.88 997.32 997.44 997.00 996.52 996.76 997.08 997.64 998.40 998.84 999.56 999.84 1000.08 1000.24 1000.56 1000.88 1001.36 1001.80 1002.32 1002.64 1002.88 1003.04 1003.52 1004.04 1004.52 1005.00 1005.12 1005.24 1005.44 1006.08 1006.80 1007.48 1008.08 1008.48 1008.88 1009.32 1009.56 1009.72 1009.84 1010.08
996.00 994.88 995.24 995.96 995.84 996.40 999.52 1002.40 1000.72 998.88 998.08 999.80 1003.04 1007.52 1006.36 1007.32 1009.28 1007.44 1004.12 1005.44 1004.84 1004.72 1005.80 998.84 998.60 998.44 997.72 997.16 996.72 996.72 997.36 997.40 998.68 998.72 999.00 999.24 999.60 999.76 999.88 1000.28 1000.80 1001.40 1001.84 1002.28 1002.52 1002.80 1003.12 1003.52 1003.76 1004.36 1004.96 1005.24 1005.72 1006.24 1006.84 1007.60 1008.20 1008.76 1008.96 1009.24 1009.56 1009.72 1009.96
995.84 994.76 995.64 997.24 995.64 994.80 998.04 999.68 996.96 1001.72 1005.44 1005.96 1002.72 1004.48 1008.76 1009.60 1009.72 1007.40 1004.64 1003.36 1003.44 1003.44 1003.20 999.80 999.64 999.16 998.28 997.40 996.64 996.52 997.64 997.96 997.92 998.32 998.60 998.64 998.84 999.44 1000.04 1000.48 1000.84 1001.28 1001.68 1002.00 1002.20 1002.40 1002.44 1002.72 1003.24 1003.80 1004.36 1004.84 1005.40 1005.84 1006.20 1006.76 1007.40 1007.68 1008.12 1008.52 1008.96 1009.32 1009.64
995.36 995.60 996.60 1001.00 998.88 995.88 995.32 995.80 998.32 997.72 1000.28 1002.88 1004.84 1003.84 1003.52 1004.20 1007.52 1007.20 1005.56 1003.92 1004.60 1000.64 1000.20 998.48 998.28 997.48 997.08 996.84 996.84 996.48 996.64 997.40 997.64 997.84 998.40 998.76 999.04 999.36 999.72 1000.12 1000.40 1000.68 1001.00 1001.36 1001.60 1002.04 1002.60 1003.04 1003.40 1003.56 1003.80 1004.20 1004.88 1005.24 1005.80 1006.24 1006.64 1007.24 1007.88 1008.44 1008.76 1009.24 1009.36
995.24 998.92 996.56 998.20 998.04 999.44 999.00 999.08 999.92 999.76 1000.24 998.48 1000.20 1001.12 1003.04 1004.60 1005.72 1005.72 1005.60 1005.96 1002.44 998.16 996.08 996.48 996.56 996.12 995.76 995.60 996.24 996.08 995.72 996.60 996.72 997.08 997.56 998.08 998.24 998.68 999.08 999.40 999.84 1000.16 1000.52 1000.84 1001.12 1001.36 1001.72 1002.00 1002.36 1002.80 1003.24 1003.64 1004.00 1004.56 1005.12 1005.52 1006.32 1006.92 1007.52 1007.88 1008.32 1008.64 1008.92
997.40 996.40 994.36 995.00 996.08 996.60 997.72 998.60 999.80 999.32 1001.28 1002.68 1004.80 1005.56 1000.88 1001.84 1004.00 1005.28 1004.72 1005.20 1000.64 996.08 993.56 994.56 994.84 994.32 994.52 994.32 994.72 995.56 995.12 995.80 996.12 996.48 996.60 997.16 997.80 998.00 998.28 998.68 999.04 999.56 999.96 1000.40 1000.80 1001.04 1001.12 1001.56 1002.12 1002.44 1002.56 1003.12 1003.72 1004.04 1004.24 1004.80 1005.48 1006.20 1006.80 1007.32 1007.72 1008.08 1008.44
996.88 994.88 993.52 993.04 993.80 994.92 995.88 996.72 998.32 997.32 998.56 999.76 1002.64 1006.08 1003.72 1001.72 1001.52 1000.60 1001.72 1003.56 1001.12 994.92 993.76 993.00 993.00 993.40 993.68 993.64 994.04 994.80 994.80 994.88 995.56 995.80 996.08 996.52 996.96 997.44 997.84 998.28 998.64 998.96 999.40 999.92 1000.44 1000.84 1001.12 1001.36 1001.68 1001.96 1002.32 1002.64 1002.88 1003.28 1003.68 1004.12 1004.84 1005.48 1005.92 1006.48 1006.96 1007.44 1007.96
995.76 993.52 992.52 992.84 993.32 994.68 996.60 996.36 995.88 996.80 998.80 998.56 1000.24 1001.20 1000.72 1002.44 1001.84 1003.00 1002.68 1004.20 1000.56 994.72 992.88 991.96 992.20 992.40 992.60 992.84 993.20 994.04 994.36 994.36 995.08 995.40 995.92 996.40 997.16 997.24 997.28 997.44 997.96 998.48 999.00 999.64 1000.28 1000.84 1001.12 1001.40 1001.68 1001.84 1001.84 1002.12 1002.52 1002.88 1003.16 1003.68 1004.36 1004.88 1005.44 1005.88 1006.40 1006.92 1007.40
998.80 997.56 995.64 995.28 994.20 994.96 996.56 997.12 996.32 995.96 996.20 997.04 997.52 997.92 998.36 1001.80 1001.64 1001.40 1003.12 1005.76 1001.32 995.84 993.20 992.40 992.56 992.84 993.36 993.44 993.16 993.28 994.00 994.36 994.76 995.04 995.60 996.00 996.72 997.08 997.28 997.60 997.92 998.40 999.00 999.72 1000.12 1000.24 1000.52 1000.80 1001.04 1001.32 1001.64 1001.92 1002.16 1002.52 1002.88 1003.40 1003.84 1004.24 1004.80 1005.20 1005.88 1006.36 1006.76
1003.44 1003.00 1002.36 1000.76 998.92 997.16 996.08 995.80 996.16 996.04 996.60 997.32 998.76 1001.48 1000.84 1003.08 1001.16 1000.44 1002.24 1002.32 999.08 996.04 994.12 993.56 993.36 993.60 993.96 993.20 993.00 992.60 992.80 993.92 994.64 994.80 995.00 995.44 996.12 996.80 996.96 997.36 997.88 998.48 998.64 998.88 999.24 999.56 999.80 1000.08 1000.56 1001.04 1001.32 1001.48 1001.68 1002.04 1002.44 1002.84 1003.52 1003.96 1004.40 1004.84 1005.36 1005.88 1006.28
1002.44 1000.16 998.44 995.40 994.88 996.32 998.12 996.92 996.52 996.76 996.08 996.00 997.08 998.48 1000.92 1002.28 1001.16 1001.48 1000.36 999.84 999.64 998.00 996.36 995.12 994.36 993.88 994.36 995.12 994.36 994.40 994.36 994.24 994.00 994.76 995.24 995.12 995.72 996.20 996.56 997.16 997.48 997.76 998.40 998.72 998.84 999.00 999.28 999.60 1000.00 1000.48 1000.88 1001.16 1001.36 1001.64 1002.08 1002.28 1002.68 1003.36 1003.88 1004.36 1004.84 1005.28 1005.72
1000.08 998.64 997.40 994.96 993.80 996.12 996.44 996.76 996.92 996.00 996.40 996.40 997.64 999.40 1000.96 998.20 1000.60 1003.04 999.32 998.28 998.96 998.44 996.72 995.72 994.80 994.56 995.36 995.12 994.80 994.92 994.52 994.04 994.32 994.52 995.12 995.44 995.72 995.88 996.12 996.80 997.32 998.00 998.28 998.56 998.84 999.04 999.36 999.60 999.76 1000.08 1000.24 1000.52 1000.88 1001.24 1001.64 1001.80 1002.16 1002.72 1003.12 1003.68 1004.28 1004.80 1005.24
998.56 997.40 996.80 996.24 995.60 994.92 995.24 995.88 995.92 996.40 996.08 996.56 997.92 998.28 997.24 997.36 1000.28 1001.44 999.16 998.20 998.76 997.80 996.20 995.20 995.00 994.68 995.64 995.16 994.72 994.40 994.12 993.92 994.20 994.72 995.04 995.80 996.28 996.56 996.64 996.92 997.24 997.76 998.28 998.64 998.96 999.20 999.32 999.40 999.76 999.88 1000.04 1000.28 1000.52 1000.76 1000.88 1001.20 1001.52 1001.92 1002.32 1003.08 1003.72 1004.20 1004.64
999.04 998.04 997.20 995.56 995.88 996.12 996.24 995.56 995.56 995.44 995.72 996.28 996.44 997.20 996.36 996.92 997.76 997.32 998.28 998.08 998.00 996.48 996.32 996.00 995.32 994.48 994.44 994.52 993.96 993.88 994.52 994.72 994.72 995.16 995.40 996.00 996.36 996.64 996.92 997.12 997.32 997.52 997.80 998.24 998.72 999.00 999.20 999.36 999.60 999.72 999.88 1000.04 1000.20 1000.56 1000.76 1000.84 1001.12 1001.28 1001.72 1002.44 1003.04 1003.56 1004.00
1000.00 998.88 998.00 997.56 996.20 995.96 997.12 996.28 995.76 995.96 995.48 995.56 995.72 996.32 996.08 996.04 996.48 996.52 997.92 998.68 999.84 997.64 995.32 995.32 994.80 994.44 994.16 994.60 995.08 995.12 995.20 995.08 995.04 995.32 995.68 996.12 996.40 996.76 997.08 997.24 997.48 997.72 997.88 998.12 998.56 998.88 999.04 999.08 999.24 999.36 999.48 999.56 999.68 1000.00 1000.20 1000.40 1000.68 1000.72 1001.08 1001.88 1002.32 1002.72 1003.16
1001.36 1000.44 1000.16 997.96 996.60 996.76 997.48 997.24 996.96 996.68 997.32 997.08 996.00 996.84 995.80 996.52 997.56 997.00 998.08 999.96 1000.40 997.56 995.32 995.28 995.24 995.28 995.52 996.36 996.40 996.36 996.08 995.64 995.52 996.04 996.32 996.64 996.84 996.88 997.16 997.32 997.44 997.76 997.92 998.20 998.40 998.64 998.72 998.72 998.84 998.96 999.20 999.24 999.44 999.72 999.76 1000.00 1000.08 1000.12 1000.56 1001.16 1001.68 1002.08 1002.44
1002.32 999.48 998.64 998.60 998.32 998.76 999.60 998.72 997.20 996.76 996.12 996.04 994.76 994.72 994.52 995.00 995.28 997.52 999.12 999.84 997.48 996.72 995.48 996.16 996.52 996.44 996.52 996.52 996.48 996.40 996.20 995.80 995.60 996.08 996.44 996.60 996.60 997.08 997.16 997.48 997.72 997.72 997.80 997.92 998.04 998.04 998.12 998.24 998.40 998.32 998.40 998.80 999.20 999.12 999.36 999.32 999.48 999.92 1000.28 1000.64 1001.16 1001.60 1001.80
1004.12 1001.56 1000.60 999.52 1001.20 1003.40 1001.20 995.88 994.44 995.00 996.28 996.48 996.64 995.96 995.36 994.72 994.40 995.80 995.64 997.16 996.28 995.88 995.92 996.92 997.44 996.84 996.92 996.72 996.44 995.76 996.00 996.24 996.60 996.76 996.64 996.56 996.68 996.80 997.12 997.20 997.24 997.36 997.40 997.56 997.52 997.52 997.60 997.64 997.68 997.76 997.92 998.32 998.52 998.44 998.64 998.88 999.28 999.60 999.96 1000.20 1000.56 1001.12 1001.40
1004.84 1002.72 1001.68 1002.28 1004.44 1003.40 996.56 994.20 994.00 994.20 995.04 995.44 997.04 999.40 998.16 996.16 994.88 995.20 995.88 996.76 996.60 995.92 995.92 996.56 996.92 996.68 996.24 995.76 996.04 996.44 996.28 996.24 997.04 997.64 997.72 997.80 997.76 997.84 997.68 997.76 997.88 997.88 997.92 997.92 997.88 997.92 997.84 997.64 997.52 997.52 997.84 997.88 998.12 998.36 998.44 998.92 998.96 999.36 999.60 999.92 1000.24 1000.68 1001.04
1003.56 1003.32 1003.56 1005.88 1003.40 997.96 995.32 994.68 994.84 994.72 994.32 994.88 996.00 998.56 999.68 1000.28 1000.28 998.36 996.44 995.88 996.04 996.20 996.32 996.36 996.28 996.28 996.16 996.32 996.80 997.08 996.84 996.68 997.28 997.76 998.16 998.08 998.16 998.72 998.72 998.72 998.60 998.36 998.16 998.04 998.12 998.12 997.68 997.64 997.72 997.60 997.84 997.60 997.96 998.28 998.12 998.56 998.92 999.12 999.40 999.68 999.92 1000.28 1000.64
1006.40 1005.72 1004.24 1002.24 998.56 997.88 997.08 997.96 1000.16 1001.72 1001.36 998.88 997.96 1002.20 1002.56 1001.52 1000.36 1000.00 999.40 997.00 996.12 996.04 996.04 996.04 996.16 996.08 996.84 998.52 999.04 997.72 997.80 997.72 997.56 997.84 998.08 998.04 998.44 998.48 998.44 998.32 998.52 998.32 998.08 998.00 997.96 997.80 997.84 997.88 997.92 998.04 997.84 997.64 997.88 998.04 998.28 998.36 998.60 998.92 999.28 999.64 999.68 999.88 1000.24
1005.20 1006.68 1005.40 1002.20 1002.16 1002.80 1002.76 1002.76 1000.48 999.32 998.08 996.80 995.64 998.84 1003.44 1001.40 1000.84 1000.04 999.60 998.08 996.96 996.64 996.16 996.20 996.52 997.04 999.28 1002.00 1001.80 999.60 998.64 998.24 998.36 998.08 998.04 997.96 998.20 998.40 998.56 998.36 998.28 998.28 998.20 998.04 997.84 997.92 998.12 998.12 998.12 998.00 998.00 998.16 998.20 998.40 998.56 998.40 998.48 998.80 999.08 999.36 999.40 999.60 999.84
1005.96 1005.80 1006.72 1005.36 1004.32 1003.52 1004.08 1003.28 1001.16 999.60 998.20 997.08 995.08 999.12 1005.04 1003.28 1002.24 1001.28 1000.64 1000.16 998.32 997.32 997.40 997.56 997.28 999.52 1002.96 1003.88 1002.48 1000.48 999.44 999.08 998.80 999.00 998.88 998.56 998.44 998.56 998.68 998.88 999.08 998.92 998.72 998.48 998.44 998.48 998.56 998.80 998.36 997.96 998.00 998.28 998.68 998.92 998.64 998.56 998.60 998.68 998.68 998.76 998.96 999.24 999.40
1005.72 1005.68 1006.56 1005.80 1005.92 1006.36 1004.28 1003.16 1001.32 999.72 998.08 996.24 996.12 1003.36 1007.40 1004.44 1002.84 1001.96 1001.52 1001.04 1000.64 1000.20 999.40 999.08 1000.08 1001.68 1003.84 1003.88 1002.52 1000.40 999.88 999.64 999.36 999.44 999.64 999.44 999.12 998.88 998.64 998.64 998.72 998.88 998.80 998.80 999.00 999.24 999.36 999.20 998.60 998.40 998.32 998.44 998.76 998.96 998.88 998.64 998.68 998.76 998.48 998.20 998.16 998.28 998.56
1006.04 1005.92 1005.48 1004.36 1005.00 1004.16 1003.64 1002.88 1001.12 999.52 997.08 997.32 1002.96 1008.12 1007.00 1004.28 1003.20 1002.56 1002.24 1001.96 1001.40 1000.76 1000.64 1000.48 1001.96 1002.16 1001.88 1001.76 1000.92 1000.24 1000.04 1000.16 1000.28 999.92 999.76 999.76 999.60 999.60 999.40 999.24 998.88 999.04 999.20 999.36 999.56 999.48 999.40 999.16 999.00 998.80 998.76 998.96 999.12 998.96 998.84 998.80 998.84 998.40 997.80 997.76 997.76 997.84 998.08
1007.20 1006.44 1007.20 1006.52 1005.48 1004.80 1003.52 1002.88 1002.00 1000.16 1000.12 1006.32 1008.32 1006.32 1004.76 1004.16 1003.24 1002.68 1002.44 1002.44 1002.16 1001.72 1001.44 1001.52 1001.92 1001.92 1001.36 1001.08 1000.88 1000.96 1000.88 1000.88 1000.84 1000.64 1000.56 1000.44 1000.12 999.64 999.56 999.48 999.52 999.64 999.68 999.80 999.72 999.60 999.44 999.32 999.20 999.16 999.20 999.52 999.36 999.08 998.92 998.92 998.44 997.68 997.24 997.16 997.32 997.60 997.88
1005.44 1006.08 1007.00 1007.12 1009.40 1005.48 1004.00 1003.52 1002.76 1002.72 1005.36 1007.44 1005.88 1005.32 1004.56 1003.52 1003.28 1003.04 1002.88 1002.60 1002.56 1002.32 1002.76 1002.08 1002.00 1001.88 1001.72 1001.64 1001.68 1001.64 1001.52 1001.40 1001.40 1001.36 1001.28 1001.32 1001.28 1000.96 1000.60 1000.56 1000.24 1000.12 1000.28 1000.32 1000.24 1000.08 999.72 999.60 999.52 999.44 999.52 999.84 999.60 999.08 999.16 998.96 998.28 997.76 997.24 997.04 997.20 997.36 997.64
1008.80 1007.60 1009.44 1009.80 1007.32 1006.64 1004.96 1005.08 1007.44 1006.56 1005.96 1005.72 1005.44 1005.48 1005.48 1004.28 1003.72 1003.60 1003.56 1003.24 1002.88 1002.72 1002.92 1003.20 1003.04 1002.68 1002.36 1001.96 1001.96 1001.96 1001.96 1001.84 1001.84 1001.80 1001.76 1001.72 1001.68 1001.48 1001.12 1001.00 1000.84 1000.68 1000.88 1000.56 1000.48 1000.24 1000.00 999.84 999.68 999.60 999.76 1000.00 999.68 999.40 999.28 998.48 998.08 997.72 997.40 997.16 997.12 997.48 997.72
1008.80 1009.12 1008.24 1007.04 1006.56 1006.44 1005.44 1005.40 1006.12 1005.92 1005.40 1004.88 1004.64 1005.08 1005.36 1005.28 1004.80 1003.84 1004.04 1004.00 1003.44 1003.20 1003.28 1003.20 1003.08 1003.00 1002.88 1002.72 1002.24 1002.44 1002.44 1002.28 1002.28 1002.40 1002.36 1002.36 1002.32 1002.20 1001.96 1001.64 1001.24 1001.08 1001.16 1001.16 1000.76 1000.64 1000.44 1000.32 1000.08 999.84 999.64 999.96 999.92 999.84 999.00 998.36 998.24 997.96 997.72 997.40 997.44 997.68 997.88
1006.84 1006.24 1006.04 1005.84 1006.08 1005.84 1005.48 1005.04 1005.28 1005.52 1005.36 1005.24 1004.80 1005.08 1005.60 1005.32 1004.92 1004.40 1004.48 1004.28 1004.00 1003.80 1003.56 1003.84 1003.56 1003.36 1003.08 1002.88 1002.64 1002.40 1002.24 1002.32 1002.36 1002.28 1002.40 1002.52 1002.52 1002.36 1002.20 1001.84 1001.60 1001.44 1001.20 1001.16 1001.04 1001.12 1000.84 1000.52 1000.32 1000.08 999.84 999.68 1000.04 999.60 998.76 998.44 998.16 998.00 997.84 997.80 997.80 997.92 997.96
1007.92 1008.88 1006.20 1006.32 1006.36 1005.92 1005.36 1005.56 1005.44 1005.16 1004.68 1005.08 1005.04 1005.12 1005.20 1005.28 1004.84 1004.60 1004.32 1004.28 1004.32 1004.16 1004.08 1004.24 1004.20 1003.84 1003.48 1003.56 1003.48 1003.24 1003.04 1002.84 1002.72 1002.72 1002.84 1002.92 1002.92 1002.88 1002.80 1002.20 1001.80 1001.76 1001.68 1001.68 1001.56 1001.44 1001.40 1000.84 1000.52 1000.24 999.96 999.64 999.44 999.08 998.84 998.52 998.24 998.12 998.12 998.12 998.16 998.08 998.16
1008.48 1008.32 1007.24 1006.56 1005.96 1005.56 1005.12 1005.12 1005.88 1005.52 1005.20 1005.00 1004.80 1004.76 1004.72 1004.84 1004.72 1004.84 1004.76 1004.44 1004.52 1004.40 1004.64 1004.60 1004.52 1004.36 1003.96 1004.12 1004.20 1004.08 1004.00 1003.80 1003.32 1003.12 1003.08 1003.16 1003.08 1002.80 1002.52 1002.16 1001.80 1001.88 1001.84 1001.88 1001.80 1001.64 1001.48 1000.96 1000.60 1000.32 1000.00 999.76 999.32 999.04 998.76 998.60 998.44 998.36 998.44 998.44 998.44 998.40 998.28
1007.52 1007.08 1006.76 1006.40 1005.96 1005.40 1005.32 1005.52 1005.56 1005.68 1005.56 1005.24 1005.20 1005.08 1004.92 1004.96 1005.20 1005.40 1005.12 1004.76 1004.84 1004.92 1005.12 1004.84 1004.88 1004.88 1004.72 1004.48 1004.44 1004.40 1004.20 1004.08 1003.88 1003.56 1003.28 1003.20 1003.20 1003.00 1002.72 1002.28 1001.88 1002.00 1001.96 1001.88 1001.68 1001.52 1001.44 1000.96 1000.68 1000.52 1000.16 999.68 999.32 999.08 998.88 998.60 998.56 998.76 998.80 998.60 998.52 998.48 998.44
1008.84 1008.48 1008.04 1008.12 1009.16 1008.68 1007.28 1006.44 1006.32 1006.00 1005.68 1005.56 1005.36 1005.12 1005.24 1005.28 1005.44 1005.64 1005.88 1005.52 1005.08 1005.12 1005.20 1005.24 1005.12 1005.20 1004.96 1004.60 1004.36 1004.44 1004.28 1004.24 1004.08 1003.84 1003.60 1003.32 1003.24 1003.04 1002.56 1002.12 1001.72 1001.72 1001.68 1001.68 1001.64 1001.48 1001.28 1000.88 1000.72 1000.52 1000.20 999.88 999.40 999.00 999.00 998.92 998.80 998.96 998.84 998.80 998.84 998.80 998.72
1011.20 1009.64 1009.08 1008.96 1009.24 1008.84 1007.92 1007.20 1006.36 1006.00 1005.72 1005.84 1006.08 1005.72 1005.44 1005.20 1005.08 1005.12 1005.52 1005.88 1005.68 1005.56 1005.32 1005.08 1005.08 1005.00 1004.88 1004.64 1004.36 1004.48 1004.48 1004.28 1004.00 1003.88 1003.88 1003.72 1003.36 1003.16 1002.68 1002.48 1002.16 1001.84 1001.72 1001.56 1001.48 1001.48 1001.24 1001.04 1000.92 1000.52 1000.28 1000.04 999.68 999.48 999.24 999.20 999.20 999.24 999.12 999.24 999.32 999.32 999.20
1009.76 1009.28 1009.16 1009.04 1008.88 1008.68 1008.12 1008.00 1007.52 1006.44 1005.80 1005.88 1006.00 1005.80 1005.52 1005.36 1005.24 1005.12 1005.20 1005.40 1005.68 1005.48 1005.24 1005.00 1004.80 1004.76 1004.72 1004.56 1004.48 1004.72 1004.56 1004.32 1004.16 1004.04 1003.84 1003.56 1003.20 1002.96 1002.76 1002.56 1002.40 1002.08 1001.84 1001.76 1001.68 1001.72 1001.48 1001.40 1001.36 1001.12 1000.88 1000.52 1000.20 999.76 999.48 999.36 999.32 999.44 999.40 999.48 999.72 999.72 999.64
1010.72 1009.60 1009.40 1009.08 1008.68 1007.92 1007.36 1007.56 1007.48 1006.72 1005.76 1005.56 1005.80 1005.68 1005.64 1005.60 1005.44 1005.32 1005.44 1005.36 1005.20 1005.24 1005.28 1005.16 1004.88 1004.76 1004.84 1004.76 1004.68 1004.72 1004.68 1004.40 1004.16 1004.16 1004.00 1003.68 1003.24 1003.04 1002.88 1002.64 1002.56 1002.36 1002.16 1001.88 1001.76 1001.64 1001.56 1001.44 1001.40 1001.24 1001.20 1001.00 1000.60 1000.24 999.80 999.68 999.60 999.76 999.84 999.76 999.88 999.92 999.92
Thickness
5824 5823 5825 5835 5821 5799 5801 5803 5793 5802 5821 5810 5784 5777 5791 5788 5764 5771 5793 5800 5817 5832 5842 5867 5875 5875 5884 5884 5886 5887 5876 5872 5868 5863 5866 5869 5869 5870 5870 5868 5866 5863 5861 5859 5859 5858 5855 5853 5851 5852 5852 5851 5848 5845 5841 5839 5835 5832 5830 5829 5830 5831 5832
5818 5834 5830 5832 5836 5825 5803 5790 5801 5819 5820 5811 5795 5771 5769 5766 5748 5769 5797 5794 5798 5801 5811 5848 5862 5859 5871 5879 5883 5885 5878 5873 5868 5867 5870 5873 5875 5875 5873 5873 5870 5866 5864 5862 5862 5862 5861 5860 5858 5856 5853 5852 5850 5848 5846 5841 5836 5833 5832 5831 5831 5831 5833
5814 5836 5821 5808 5828 5840 5821 5811 5822 5815 5786 5781 5787 5770 5759 5754 5746 5767 5792 5796 5800 5800 5811 5842 5851 5850 5864 5873 5880 5883 5876 5870 5869 5870 5871 5874 5876 5875 5872 5872 5869 5868 5866 5864 5864 5864 5864 5863 5860 5858 5855 5854 5852 5851 5850 5847 5841 5838 5835 5834 5833 5832 5833
5814 5819 5806 5788 5801 5825 5829 5823 5822 5815 5797 5785 5785 5784 5781 5770 5759 5767 5781 5789 5802 5819 5836 5850 5852 5860 5869 5870 5875 5881 5878 5873 5872 5873 5872 5872 5874 5873 5872 5871 5869 5870 5868 5867 5869 5867 5865 5863 5861 5861 5860 5857 5856 5854 5854 5851 5845 5841 5837 5834 5834 5833 5834
5806 5795 5799 5799 5797 5805 5808 5802 5797 5800 5804 5802 5795 5794 5798 5790 5773 5772 5777 5780 5806 5847 5866 5864 5864 5873 5878 5878 5877 5880 5884 5881 5876 5879 5877 5875 5877 5877 5876 5875 5873 5873 5871 5870 5870 5869 5869 5868 5866 5866 5866 5863 5862 5860 5859 5856 5849 5843 5839 5837 5836 5836 5837
5790 5793 5814 5823 5817 5813 5808 5801 5798 5798 5800 5796 5780 5773 5793 5804 5790 5787 5788 5783 5814 5865 5882 5877 5881 5883 5885 5889 5884 5881 5887 5885 5879 5882 5882 5880 5881 5880 5881 5881 5878 5876 5874 5871 5870 5870 5871 5871 5869 5869 5869 5867 5866 5865 5865 5862 5855 5848 5843 5841 5839 5839 5839
5790 5811 5830 5831 5827 5828 5822 5815 5815 5813 5808 5799 5775 5762 5784 5800 5797 5806 5804 5790 5819 5870 5887 5887 5893 5891 5890 5895 5891 5886 5889 5889 5883 5884 5885 5883 5882 5883 5885 5885 5882 5880 5877 5874 5872 5871 5871 5870 5869 5869 5869 5870 5870 5870 5870 5866 5860 5853 5848 5845 5844 5842 5842
5790 5814 5831 5833 5831 5826 5813 5812 5822 5819 5812 5810 5802 5795 5800 5797 5794 5804 5796 5784 5819 5869 5888 5894 5897 5895 5894 5896 5895 5890 5889 5890 5887 5884 5885 5883 5881 5884 5887 5886 5884 5882 5878 5875 5873 5870 5870 5870 5869 5870 5870 5871 5872 5872 5872 5869 5863 5857 5853 5850 5848 5846 5845
5757 5775 5789 5798 5808 5809 5802 5806 5818 5821 5820 5819 5814 5814 5812 5795 5795 5805 5790 5783 5820 5864 5885 5892 5893 5890 5890 5893 5897 5896 5892 5890 5887 5886 5886 5883 5881 5882 5884 5884 5883 5881 5878 5876 5875 5873 5873 5872 5872 5872 5872 5872 5873 5874 5872 5869 5865 5861 5857 5855 5852 5849 5848
5725 5738 5751 5766 5783 5794 5800 5806 5811 5817 5822 5818 5810 5805 5795 5784 5795 5809 5799 5796 5824 5858 5875 5882 5884 5884 5883 5887 5894 5897 5895 5890 5886 5886 5886 5886 5884 5881 5881 5883 5881 5880 5880 5879 5879 5878 5877 5877 5875 5874 5873 5874 5875 5875 5873 5871 5868 5864 5861 5858 5855 5853 5851
5722 5738 5759 5786 5797 5789 5787 5797 5805 5811 5818 5821 5815 5800 5788 5791 5797 5799 5807 5817 5826 5842 5859 5868 5876 5881 5875 5874 5880 5884 5887 5888 5886 5885 5884 5886 5887 5883 5884 5884 5881 5880 5879 5879 5881 5881 5880 5880 5877 5876 5875 5874 5875 5874 5873 5873 5871 5868 5865 5862 5859 5857 5855
5735 5753 5771 5794 5804 5794 5791 5796 5801 5807 5815 5820 5813 5798 5800 5810 5797 5786 5812 5831 5823 5831 5853 5862 5870 5875 5867 5864 5870 5874 5880 5886 5887 5886 5884 5884 5883 5881 5883 5883 5880 5879 5877 5877 5879 5878 5878 5878 5877 5877 5877 5876 5877 5876 5875 5875 5874 5872 5870 5866 5863 5860 5859
5740 5758 5767 5781 5792 5795 5798 5801 5803 5808 5813 5813 5809 5807 5817 5822 5804 5796 5818 5828 5824 5836 5853 5859 5866 5870 5863 5864 5871 5875 5880 5884 5885 5884 5883 5880 5877 5877 5878 5879 5879 5878 5877 5876 5875 5874 5875 5876 5875 5877 5877 5878 5879 5878 5878 5878 5877 5876 5874 5870 5866 5864 5862
5733 5748 5758 5772 5783 5786 5789 5797 5805 5810 5813 5816 5815 5816 5826 5829 5822 5823 5827 5823 5827 5841 5849 5853 5862 5868 5867 5869 5873 5876 5877 5879 5881 5881 5878 5876 5875 5874 5875 5876 5878 5878 5877 5877 5874 5873 5874 5875 5876 5877 5878 5880 5881 5880 5881 5881 5879 5880 5879 5874 5871 5869 5866
5720 5736 5745 5757 5771 5777 5778 5786 5797 5803 5807 5815 5818 5819 5826 5828 5827 5832 5828 5815 5816 5834 5848 5853 5857 5863 5864 5861 5862 5867 5869 5872 5876 5875 5873 5873 5873 5872 5873 5873 5874 5876 5876 5875 5874 5874 5874 5876 5877 5879 5880 5883 5884 5883 5884 5883 5883 5885 5883 5878 5876 5874 5872
5705 5726 5732 5742 5761 5769 5767 5773 5786 5793 5796 5806 5816 5821 5826 5828 5828 5827 5819 5806 5806 5827 5847 5851 5850 5854 5853 5848 5850 5856 5859 5865 5869 5867 5866 5868 5869 5869 5870 5870 5871 5873 5874 5875 5875 5875 5876 5878 5879 5881 5884 5885 5885 5886 5886 5886 5888 5889 5886 5884 5880 5879 5878
5692 5717 5727 5737 5745 5739 5743 5767 5787 5796 5799 5807 5818 5826 5831 5838 5836 5824 5813 5811 5819 5833 5843 5841 5840 5843 5842 5842 5847 5851 5855 5861 5864 5863 5864 5865 5867 5868 5867 5868 5870 5872 5874 5876 5877 5877 5879 5880 5882 5885 5887 5887 5887 5890 5890 5890 5891 5890 5888 5888 5884 5882 5882
5673 5700 5720 5726 5715 5709 5738 5783 5803 5804 5803 5803 5806 5813 5826 5842 5846 5838 5827 5823 5828 5837 5838 5833 5832 5836 5839 5843 5848 5852 5856 5857 5854 5855 5857 5860 5863 5865 5865 5866 5869 5870 5872 5874 5876 5879 5881 5883 5886 5888 5889 5889 5890 5893 5893 5892 5892 5890 5889 5889 5887 5885 5884
5665 5689 5702 5693 5687 5713 5763 5798 5807 5806 5806 5806 5798 5791 5798 5811 5819 5827 5829 5823 5824 5831 5833 5831 5830 5835 5841 5843 5845 5847 5851 5852 5849 5846 5848 5852 5853 5854 5856 5860 5862 5864 5867 5869 5871 5875 5878 5882 5886 5887 5888 5890 5891 5892 5892 5891 5891 5891 5890 5890 5888 5886 5885
5664 5676 5679 5677 5696 5743 5780 5788 5785 5785 5789 5798 5792 5770 5763 5772 5780 5794 5811 5820 5824 5827 5828 5828 5829 5833 5836 5834 5833 5837 5841 5846 5848 5843 5842 5844 5844 5845 5849 5852 5855 5858 5863 5867 5869 5872 5876 5880 5882 5883 5886 5889 5889 5890 5892 5891 5890 5890 5889 5889 5889 5888 5886
5653 5654 5667 5692 5715 5738 5750 5745 5743 5746 5754 5775 5781 5756 5745 5761 5773 5778 5791 5807 5818 5821 5823 5826 5827 5828 5823 5811 5813 5826 5834 5838 5841 5840 5840 5842 5842 5843 5846 5850 5853 5857 5860 5865 5868 5870 5873 5875 5877 5880 5883 5886 5887 5887 5888 5890 5889 5889 5887 5888 5889 5889 5887
5645 5644 5656 5683 5695 5699 5703 5707 5724 5742 5749 5771 5786 5759 5735 5749 5767 5768 5773 5787 5804 5814 5818 5821 5821 5815 5799 5783 5790 5811 5823 5828 5833 5834 5836 5840 5840 5840 5842 5846 5849 5852 5855 5860 5864 5867 5869 5869 5873 5877 5878 5880 5881 5881 5883 5886 5887 5887 5887 5887 5888 5888 5888
5639 5640 5643 5658 5670 5677 5685 5697 5723 5740 5744 5769 5787 5751 5715 5729 5750 5754 5756 5766 5781 5795 5801 5805 5806 5793 5772 5762 5778 5800 5812 5818 5823 5824 5827 5833 5836 5838 5840 5841 5843 5845 5850 5854 5857 5860 5861 5862 5867 5873 5874 5875 5874 5874 5878 5882 5883 5885 5887 5888 5890 5889 5889
5633 5638 5641 5650 5656 5664 5679 5695 5714 5729 5747 5773 5766 5713 5688 5714 5736 5740 5744 5750 5760 5773 5781 5784 5782 5770 5758 5760 5776 5795 5804 5808 5814 5817 5819 5824 5829 5832 5835 5838 5840 5843 5845 5846 5848 5849 5852 5855 5861 5866 5868 5869 5868 5869 5873 5877 5878 5881 5886 5889 5891 5892 5891
5628 5630 5633 5642 5647 5656 5674 5689 5704 5728 5749 5747 5712 5675 5679 5709 5723 5728 5737 5742 5748 5758 5764 5765 5763 5759 5764 5771 5780 5791 5798 5800 5805 5810 5813 5818 5823 5825 5827 5831 5836 5838 5839 5840 5841 5843 5846 5851 5855 5858 5861 5861 5862 5866 5869 5872 5874 5880 5886 5890 5891 5892 5892
5622 5626 5626 5629 5637 5653 5671 5680 5694 5716 5714 5686 5668 5673 5690 5705 5714 5723 5731 5735 5740 5745 5750 5754 5755 5758 5768 5776 5779 5784 5791 5794 5798 5803 5806 5810 5814 5818 5822 5826 5829 5832 5832 5833 5835 5838 5843 5846 5849 5853 5854 5854 5857 5862 5865 5866 5873 5880 5887 5890 5890 5890 5890
5617 5621 5617 5612 5617 5640 5663 5670 5673 5680 5671 5655 5662 5680 5691 5699 5711 5719 5722 5727 5733 5735 5738 5745 5751 5756 5763 5769 5773 5779 5784 5789 5793 5796 5798 5800 5803 5807 5813 5816 5820 5823 5824 5826 5829 5833 5838 5842 5844 5847 5848 5848 5852 5858 5860 5865 5872 5878 5884 5888 5889 5889 5888
5597 5596 5596 5601 5612 5631 5650 5652 5646 5649 5654 5660 5667 5674 5680 5693 5705 5708 5712 5719 5725 5729 5732 5737 5743 5749 5755 5762 5768 5772 5776 5781 5785 5786 5789 5791 5793 5797 5802 5806 5812 5816 5816 5820 5825 5829 5833 5836 5839 5843 5844 5844 5848 5853 5858 5864 5871 5874 5880 5884 5886 5885 5884
5588 5589 5596 5610 5619 5628 5640 5643 5640 5643 5652 5662 5670 5672 5675 5683 5693 5700 5704 5709 5716 5724 5727 5729 5735 5742 5748 5757 5765 5768 5770 5774 5777 5778 5781 5782 5784 5788 5793 5799 5805 5808 5810 5814 5819 5822 5827 5831 5833 5838 5842 5842 5843 5848 5856 5863 5867 5870 5874 5879 5880 5880 5880
5593 5601 5611 5618 5619 5624 5634 5639 5641 5646 5652 5657 5666 5671 5672 5675 5684 5694 5698 5701 5709 5716 5718 5722 5728 5734 5742 5750 5757 5762 5765 5768 5771 5773 5774 5775 5778 5781 5786 5792 5797 5801 5805 5809 5813 5816 5821 5825 5828 5833 5838 5840 5842 5846 5854 5860 5864 5867 5870 5872 5874 5875 5876
5588 5593 5603 5609 5611 5618 5630 5636 5640 5647 5654 5657 5661 5665 5667 5672 5680 5687 5692 5698 5703 5708 5711 5716 5720 5727 5736 5740 5742 5749 5755 5758 5763 5767 5768 5770 5772 5775 5780 5786 5792 5795 5798 5802 5806 5809 5813 5819 5824 5828 5833 5838 5841 5846 5852 5857 5860 5863 5864 5865 5867 5870 5872
5580 5583 5594 5605 5614 5623 5631 5634 5634 5637 5643 5650 5658 5663 5666 5672 5677 5682 5687 5693 5697 5700 5705 5710 5713 5720 5727 5729 5731 5738 5743 5747 5754 5759 5762 5764 5767 5770 5776 5783 5787 5790 5792 5796 5801 5803 5807 5813 5819 5823 5828 5834 5840 5844 5848 5852 5855 5857 5858 5860 5862 5865 5867
5576 5584 5592 5597 5605 5615 5621 5622 5620 5623 5629 5638 5647 5653 5661 5668 5672 5676 5681 5687 5692 5694 5697 5702 5708 5712 5717 5722 5727 5731 5734 5739 5745 5751 5756 5760 5762 5765 5771 5778 5783 5786 5788 5791 5796 5799 5803 5809 5814 5818 5823 5830 5836 5841 5844 5848 5851 5851 5852 5855 5858 5860 5862
5559 5570 5574 5572 5575 5586 5598 5604 5609 5615 5623 5630 5637 5645 5652 5658 5663 5667 5671 5677 5684 5688 5691 5696 5701 5705 5710 5717 5723 5726 5730 5734 5738 5743 5748 5753 5757 5762 5767 5774 5780 5784 5786 5789 5792 5796 5800 5806 5809 5813 5819 5825 5831 5837 5839 5842 5845 5846 5847 5850 5851 5853 5856
5544 5557 5563 5564 5568 5577 5587 5595 5602 5612 5623 5628 5633 5642 5648 5653 5659 5664 5666 5670 5675 5680 5685 5691 5696 5700 5705 5712 5716 5720 5724 5728 5733 5737 5742 5746 5751 5757 5762 5768 5773 5778 5782 5786 5789 5792 5796 5800 5803 5807 5813 5818 5824 5830 5833 5836 5837 5838 5840 5842 5842 5844 5847
5544 5554 5559 5564 5572 5580 5588 5590 5595 5610 5625 5630 5632 5639 5645 5650 5656 5660 5663 5666 5670 5675 5681 5687 5692 5697 5701 5706 5710 5713 5716 5722 5728 5731 5735 5740 5747 5752 5757 5762 5767 5772 5777 5781 5783 5787 5791 5793 5796 5800 5805 5810 5816 5821 5826 5829 5830 5831 5833 5834 5835 5836 5838
5538 5546 5552 5558 5568 5581 5591 5592 5594 5608 5623 5630 5633 5639 5643 5645 5649 5654 5659 5663 5667 5671 5676 5681 5686 5691 5695 5699 5703 5707 5710 5717 5722 5725 5729 5735 5742 5747 5752 5757 5761 5766 5771 5776 5779 5782 5785 5788 5790 5794 5797 5800 5806 5812 5816 5820 5822 5823 5825 5826 5827 5828 5830